Regional Weather Roundup
Issued by NWS Charleston, SC

Current Version | Previous Version | Text Only | Print | Product List | Glossary Off
Versions: 1 2 3 4 5 6 7 8 9 10 11 12 13 14 15 16 17 18 19 20 21 22 23 24 25 26 27 28 29 30 31 32 33 34 35 36 37 38 39 40 41 42 43 44 45 46 47 48 49 50

000
ASUS42 KCHS 251812
RWRCHS

Regional Weather Roundup
National Weather Service Charleston SC
200 PM EDT WED APR 25 2018

NOTE: "fair" indicates few or no clouds below 12,000 feet with no
significant weather and/or obstructions to visibility.

Not all stations are quality controlled. Use data with caution,
especially dewpoint observations.

SCZ027-030-031-034>040-042>050-251900-
...Southeast South Carolina...

CITY           SKY/WX    TMP DP  RH WIND       PRES   REMARKS
N Charleston   FAIR      77  55  46 W8        29.80F
6HR MIN TEMP:  63; 6HR MAX TEMP:  79;

Waterfront Prk   N/A     74  54  49 W5G12     29.65F
Mount Pleasant FAIR      75  55  50 NW12      29.80F
Johns Island   MOCLDY    77  57  50 W13G22    29.80F
Pinopolis        N/A    N/A N/A N/A VRB3      29.73F
Moncks Corner  MOCLDY    73  52  46 NW3       29.80S
Summerville    MOCLDY    73  54  49 W10       29.81S
Beaufort MCAS  FAIR      79  57  46 SW16G23   29.82S
6HR MIN TEMP:  63; 6HR MAX TEMP:  79;

Beaufort Arpt  MOCLDY    77  55  47 W16       29.82S HAZE
Hilton Head Is SUNNY     77  54  44 SW14      29.83F
Walterboro     MOCLDY    75  54  46 W8G20     29.82S
Allendale      FAIR      75  54  46 VRB5G14   29.81F

...Southern Midlands and Pee Dee...

CITY           SKY/WX    TMP DP  RH WIND       PRES   REMARKS
Georgetown     MOCLDY    75  54  46 W15       29.79F
Kingstree      MOCLDY    73  52  46 SW6       29.78F
Orangeburg     CLOUDY    74  54  49 W8        29.80F
6HR MIN TEMP:  58; 6HR MAX TEMP:  74;

Barnwell       NOT AVBL
Aiken          CLOUDY    73  54  49 SW7G17    29.84F
Manning        FAIR      72  52  49 SW5       29.79F
Columbia       FAIR      77  55  46 NW9       29.79F
6HR MIN TEMP:  60; 6HR MAX TEMP:  77;

Sumter         CLOUDY    75  52  43 NW8       29.76F
6HR MIN TEMP:  60; 6HR MAX TEMP:  76;

Florence       CLOUDY    75  55  49 VRB7      29.77F
6HR MIN TEMP:  62; 6HR MAX TEMP:  76;

Myrtle Beach   CLOUDY    70  61  73 S13       29.78F
N Myrtle Beach PTSUNNY   69  61  75 S21       29.76F
6HR MIN TEMP:  63; 6HR MAX TEMP:  73;


$$

GAZ063-065-086>088-099>101-113>116-118-119-134>141-150-251900-
...Southeast Georgia...

CITY           SKY/WX    TMP DP  RH WIND       PRES   REMARKS
Savannah Arpt  PTSUNNY   76  54  46 W15G22    29.84S
6HR MIN TEMP:  60; 6HR MAX TEMP:  79;

Hunter AAF     FAIR      78  55  44 W15G25    29.81
6HR MIN TEMP:  61; 6HR MAX TEMP:  78;

Fort Stewart   FAIR      77  54  44 W15G21    29.83S
6HR MIN TEMP:  60; 6HR MAX TEMP:  78;

Statesboro     CLOUDY    74  49  41 W13G18    29.85S
Sylvania       FAIR      75  58  56 W9G18     29.84F
Claxton        MOCLDY    75  57  53 W9G18     29.85F

...CSRA, Central and far Southeast Georgia...

CITY           SKY/WX    TMP DP  RH WIND       PRES   REMARKS
Thomson        PTSUNNY   72  53  52 NW8       29.88F
Augusta-Bush   PTSUNNY   76  54  46 W14       29.81F
6HR MIN TEMP:  58; 6HR MAX TEMP:  77;

Augusta-Daniel PTSUNNY   75  55  49 VRB6      29.83F
Swainsboro     MOCLDY    73  55  53 W13G18    29.87S
Vidalia        PTSUNNY   73  54  49 NW12      29.86F HAZE
Eastman        MOCLDY    75  43  31 W12G18    29.92S
Hazlehurst     MOCLDY    76  51  40 NW7       29.87S
Alma           FAIR      77  53  43 W14       29.87F
6HR MIN TEMP:  60; 6HR MAX TEMP:  78;

Waycross       FAIR      78  49  36 W14G21    29.87F
Jesup          NOT AVBL
Baxley         PTSUNNY   73  52  46 W12G20    29.87F
Brunswick      FAIR      77  52  41 W13G20    29.87F
Saint Simons   FAIR      78  55  44 W16       29.85F
6HR MIN TEMP:  64; 6HR MAX TEMP:  79;


$$

SCZ027-028-034-036>038-045-046-048>050-GAZ119-141-251900-
...Lake and Supplemental Coastal Observations...

STATION/POSITION TIME  TEMP    WIND        PRES    WAVE   SWELL
                       AIR SEA DIR/SP/G            HT/PER HT/PER/DIR
                 (UTC) (F)     (DEG/KT/KT) (MB)    (FT/S) (FT/S/D)
Winyah Bay       1645   72     280/  7     1009.0
Lake Murray      1720   71     270/  9/ 11 1008.5
ACE Basin NERRS  1645   74     350/  4       N/A
Fort Pulaski     1736   73 67  280/ 16/ 19 1010.4F
Sapelo Island    1700   74     260/ 12     1011.0

$$

ANZ835-935-AMZ111-154-330-350-352-354-370-450-454-472-251900-
...C-MAN and Buoy Observations...

STATION/POSITION TIME  TEMP    WIND        PRES    WAVE   SWELL
                       AIR SEA DIR/SP/G            HT/PER HT/PER/DIR
                 (UTC) (F)     (DEG/KT/KT) (MB)    (FT/S) (FT/S/D)
Buoy 41004       1750      69  240/ 14/ 17 1009.7F   6/ 8   5/130/ 8
Buoy 41008       1750   67 66  180/ 10/ 12 1010.8F   3/ 8   3/ 80/ 8
Folly Beach CMAN 1700   67     200/ 14/ 17 1010.2F
Capers Nearshore 1708   66 66  230/ 14/ 19 1009.8F
Fripp Nearshore  1708   67 66  210/ 10/ 16 1009.9F


STATION/POSITION TIME  TEMP    WIND        PRES    WAVE   SWELL
                       AIR SEA DIR/SP/G            HT/PER HT/PER/DIR
                 (UTC) (F)     (DEG/KT/KT) (MB)    (FT/S) (FT/S/D)
5E St. Marys GA  1800      69                N/A     3/ 9
Frying Pan Buoy  1750   67 71  220/ 17/ 21 1008.5F   6/ 9   5/130/ 9
Buoy 41025       1750   69 70  220/ 17/ 21 1007.6F   9/10   8/130/10
Cape Lookout NC  1800          200/ 14/ 18 1007.5F
Buoy 41002       1750   73 73  230/ 17/ 21 1009.4F   8/ 9   7/120/ 9
Buoy 41010       1750   74 75  270/ 14/ 17 1013.3F   6/ 9   5/ 80/ 9
St Augustine FL  1800   75 69  240/ 11/ 14 1012.7F


$$



USA.gov is the U.S. government's official web portal to all federal, state and local government web resources and services.